Content
SEND FEEDBACK

Daily
Averages
Monthly
Summary
United States of America

DEDEDO, GUAM


Home > North America > United States > Guam
Elevation: 111 meters     Latitude: 13 33N     Longitude: 144 49E

WEATHER
 
SELECT A DAY
Number of Records: 208,860;   Date Range: 1/1/95 - 7/20/14
 
SHARE

PRINT THIS DATA

[ ← Previous Day ]
WEATHER ALMANAC - 22 NOVEMBER, 2013
[ Next Day → ]
[ °F ]   °C
Weather ElementAverageHighLow
Temperature28.3 °C31.5 °C (10:54 am)26.1 °C (2:54 am)
Dewpoint23.8 °C25 °C (6:54 pm)22.2 °C (2:54 am)
Humidity77 %90 % (11:54 pm)63 % (11:54 am)
Barometer1010.5 hPa1011.9 hPa (8:54 am)1008.8 hPa (1:54 pm)
Wind Speed20.1 km/h27.8 km/h (11:54 am)
Wind Gust40.7 km/h (6:54 pm)
Weather ElementAverage
Visibility15.8 km
Wind DirectionENE (67.4 °)

Weather ElementTotal
Precipitation0.25 mm
Cooling Degree Days10.5 (Base 18.3)
Growing Degree Days18.8 (Base 10)
Averaged from 23 records on 22 November, 2013
WEATHER CONDITIONS BREAKOUT
WIND DIRECTION BREAKOUT
WEATHER BY HOUR - 22 NOVEMBER, 2013
[ °F ]   °C
Local TimeTemperatureDewpointHumidityBarometerVisibilityWind DirectionWind SpeedGust SpeedPrecipitationEventsConditions
1:54 AM26.7 °C23.3 °C81 %1010.5 hPa16.1 kmNE (50°)13 km/hPartly Cloudy
2:54 AM26.1 °C22.2 °C79 %1010.2 hPa16.1 kmENE (60°)16.7 km/hOvercast
3:54 AM26.7 °C23.3 °C81 %1010.2 hPa16.1 kmENE (60°)16.7 km/hClear
4:54 AM26.7 °C22.2 °C76 %1010.2 hPa16.1 kmENE (70°)20.4 km/hClear
5:54 AM27.2 °C22.8 °C77 %1010.2 hPa16.1 kmENE (60°)18.5 km/hPartly Cloudy
6:54 AM27.2 °C22.8 °C77 %1011.2 hPa16.1 kmENE (70°)14.8 km/hClear
7:54 AM28.3 °C23.3 °C74 %1011.5 hPa16.1 kmENE (60°)20.4 km/hClear
8:54 AM30 °C23.9 °C70 %1011.9 hPa16.1 kmENE (70°)22.2 km/hPartly Cloudy
9:54 AM30 °C23.3 °C67 %1011.9 hPa16.1 kmENE (70°)25.9 km/hScattered Clouds
10:54 AM31.5 °C24.3 °C65 %1010.8 hPa16.1 kmENE (70°)25.9 km/hScattered Clouds
11:54 AM31.1 °C23.3 °C63 %1010.2 hPa16.1 kmENE (60°)27.8 km/hScattered Clouds
12:54 PM30.6 °C23.9 °C67 %1009.5 hPa16.1 kmENE (60°)27.8 km/hOvercast
1:54 PM29.4 °C23.9 °C72 %1008.8 hPa16.1 kmENE (60°)24.1 km/h38.9 km/h0 mmOvercast
2:54 PM29.4 °C23.9 °C72 %1008.8 hPa16.1 kmENE (70°)25.9 km/hMostly Cloudy
3:54 PM29.4 °C24.4 °C74 %1008.8 hPa16.1 kmENE (70°)22.2 km/hOvercast
4:54 PM28.9 °C23.9 °C74 %1009.5 hPa16.1 kmENE (70°)24.1 km/hScattered Clouds
5:54 PM28.3 °C23.9 °C77 %1010.2 hPa16.1 kmENE (70°)20.4 km/hScattered Clouds
6:54 PM27.2 °C25 °C88 %1010.2 hPa9.7 kmENE (60°)22.2 km/h40.7 km/h0 mmRainLight Rain
7:54 PM27.2 °C25 °C88 %1010.8 hPa16.1 kmEast (80°)14.8 km/h0 mmMostly Cloudy
8:54 PM27.2 °C24.4 °C85 %1011.2 hPa16.1 kmEast (80°)14.8 km/hPartly Cloudy
9:54 PM26.7 °C24.4 °C87 %1010.8 hPa16.1 kmEast (80°)13 km/hPartly Cloudy
10:54 PM27.2 °C25 °C88 %1010.8 hPa16.1 kmENE (70°)14.8 km/hClear
11:54 PM26.7 °C25 °C90 %1010.5 hPa16.1 kmEast (80°)16.7 km/h0.25 mmPartly Cloudy
Hourly data recorded from PGUM, located 0 kilometers away from Dededo, Guam







STORIES FROM OUR PARTNERS